Tracking 27122 objects as of 24-Mar-2023
HD Live streaming from Space Station
objects crossing your sky now

INTELSAT 804

Track INTELSAT 804 now!
INTELSAT 804 is classified as:


NORAD ID: 25110
Int'l Code: 1997-083A
Perigee: 35,799.6 km
Apogee: 35,858.4 km
Inclination: 12.0 °
Period: 1,437.9 minutes
Semi major axis: 42199 km
RCS: 10.0118 m2 (large)
Launch date: December 21, 1997
Source: International Telecommunications Satellite Organization (ITSO)
Launch site: FRENCH GUIANA (FRGUI)
Your satellite tracking list
Your tracking list is empty




NASA's NSSDC Master Catalog

Two Line Element Set (TLE):
1 25110U 97083A   23082.88885954 -.00000172  00000-0  00000+0 0  9996
2 25110  11.9512  25.7389 0006961  24.8265 174.5275  1.00146191 92570
Source of the keplerian elements: AFSPC